KLM1825 EHAM-EGLL

Flight info

Callsign KLM1825
Flight time 0h 44m
Altitude 24000
Route VOLLA3V IDRID L980 LOGAN LOGAN2H
Aircraft A333/H-SDE3GHIJ2J3J5M1RVWXY/LB2D1

Departure

Time 2026-05-04 20:33
Airport Amsterdam Airport Schiphol (EHAM)

Arrival

Time 2026-05-04 21:17
Airport London Heathrow Airport (EGLL)
Time Latitude Longitude Altitude Speed Heading
2026-05-04 18:59 52.31011 4.77240 3 ft 0 kts 183°
2026-05-04 19:08 52.31012 4.77240 3 ft 0 kts 183°
2026-05-04 19:16 52.31012 4.77241 3 ft 0 kts 183°
2026-05-04 19:16 52.31012 4.77240 3 ft 0 kts 183°
2026-05-04 19:17 52.31012 4.77241 3 ft 0 kts 183°
2026-05-04 19:18 52.31012 4.77240 3 ft 0 kts 183°
2026-05-04 19:18 52.31012 4.77241 3 ft 0 kts 183°
2026-05-04 19:20 52.31013 4.77241 3 ft 0 kts 183°
2026-05-04 19:34 52.31014 4.77241 3 ft 0 kts 183°
2026-05-04 19:52 52.31015 4.77241 3 ft 0 kts 183°
2026-05-04 20:12 52.31031 4.77243 3 ft 4 kts 193°
2026-05-04 20:12 52.31056 4.77258 5 ft 4 kts 209°
2026-05-04 20:13 52.31074 4.77274 6 ft 4 kts 149°
2026-05-04 20:13 52.31072 4.77297 5 ft 2 kts 92°
2026-05-04 20:13 52.31074 4.77256 4 ft 4 kts 92°
2026-05-04 20:13 52.31076 4.77212 3 ft 4 kts 93°
2026-05-04 20:14 52.31077 4.77185 3 ft 1 kts 93°
2026-05-04 20:18 52.31075 4.77249 3 ft 9 kts 92°
2026-05-04 20:19 52.31072 4.77372 3 ft 12 kts 93°
2026-05-04 20:19 52.31029 4.77467 3 ft 11 kts 162°
2026-05-04 20:19 52.30920 4.77474 3 ft 17 kts 182°
2026-05-04 20:19 52.30833 4.77468 3 ft 13 kts 182°
2026-05-04 20:20 52.30735 4.77460 3 ft 15 kts 183°
2026-05-04 20:20 52.30639 4.77398 3 ft 16 kts 226°
2026-05-04 20:20 52.30571 4.77244 3 ft 17 kts 237°
2026-05-04 20:20 52.30508 4.77078 3 ft 18 kts 238°
2026-05-04 20:21 52.30440 4.76900 3 ft 19 kts 238°
2026-05-04 20:21 52.30367 4.76708 3 ft 21 kts 238°
2026-05-04 20:21 52.30205 4.76291 3 ft 23 kts 238°
2026-05-04 20:22 52.30119 4.76063 3 ft 23 kts 238°
2026-05-04 20:22 52.30063 4.75919 3 ft 13 kts 237°
2026-05-04 20:22 52.30010 4.75777 3 ft 17 kts 238°
2026-05-04 20:22 52.29945 4.75608 3 ft 18 kts 237°
2026-05-04 20:23 52.29876 4.75429 3 ft 19 kts 238°
2026-05-04 20:23 52.29841 4.75236 3 ft 18 kts 282°
2026-05-04 20:23 52.29915 4.75062 3 ft 19 kts 311°
2026-05-04 20:23 52.30004 4.74894 3 ft 20 kts 311°
2026-05-04 20:24 52.30096 4.74725 7 ft 19 kts 311°
2026-05-04 20:24 52.30169 4.74592 14 ft 15 kts 311°
2026-05-04 20:24 52.30244 4.74453 14 ft 17 kts 311°
2026-05-04 20:24 52.30324 4.74281 2 ft 20 kts 292°
2026-05-04 20:25 52.30284 4.74141 3 ft 13 kts 213°
2026-05-04 20:25 52.30279 4.74135 3 ft 1 kts 214°
2026-05-04 20:25 52.30280 4.74118 3 ft 1 kts 284°
2026-05-04 20:25 52.30310 4.74092 3 ft 11 kts 331°
2026-05-04 20:26 52.30411 4.74053 3 ft 17 kts
2026-05-04 20:26 52.30502 4.74062 3 ft 0 kts
2026-05-04 20:30 52.30503 4.74062 3 ft 2 kts
2026-05-04 20:30 52.30551 4.74064 3 ft 8 kts 358°
2026-05-04 20:31 52.30586 4.74014 3 ft 10 kts 295°
2026-05-04 20:31 52.30651 4.73896 2 ft 17 kts 329°
2026-05-04 20:31 52.30759 4.73815 3 ft 17 kts 341°
2026-05-04 20:31 52.30848 4.73797 3 ft 0 kts
2026-05-04 20:32 52.30854 4.73798 3 ft 0 kts
2026-05-04 20:32 52.31046 4.73816 3 ft 70 kts
2026-05-04 20:33 52.31811 4.73883 3 ft 147 kts
2026-05-04 20:33 52.33029 4.73984 221 ft 196 kts
2026-05-04 20:33 52.34490 4.74104 792 ft 219 kts
2026-05-04 20:33 52.36004 4.74228 1602 ft 215 kts
2026-05-04 20:34 52.37391 4.74340 2301 ft 190 kts
2026-05-04 20:34 52.38692 4.74442 2948 ft 187 kts
2026-05-04 20:34 52.40005 4.74544 3576 ft 191 kts
2026-05-04 20:34 52.41334 4.74310 4046 ft 193 kts 343°
2026-05-04 20:35 52.42478 4.73170 4686 ft 195 kts 314°
2026-05-04 20:35 52.43188 4.71218 5207 ft 206 kts 285°
2026-05-04 20:35 52.43323 4.68825 5729 ft 218 kts 271°
2026-05-04 20:35 52.43291 4.66299 6278 ft 229 kts 263°
2026-05-04 20:36 52.42842 4.63732 6867 ft 242 kts 244°
2026-05-04 20:36 52.41963 4.61269 7445 ft 260 kts 238°
2026-05-04 20:36 52.40924 4.58748 7994 ft 272 kts 235°
2026-05-04 20:36 52.39837 4.56172 8454 ft 276 kts 237°
2026-05-04 20:37 52.38812 4.53501 8840 ft 278 kts 240°
2026-05-04 20:37 52.37821 4.50785 9195 ft 285 kts 239°
2026-05-04 20:37 52.36754 4.47998 10021 ft 288 kts 238°
2026-05-04 20:37 52.35673 4.45202 10780 ft 298 kts 238°
2026-05-04 20:38 52.34531 4.42224 11150 ft 319 kts 239°
2026-05-04 20:38 52.33322 4.39025 11513 ft 339 kts 239°
2026-05-04 20:38 52.32089 4.35729 12143 ft 347 kts 239°
2026-05-04 20:38 52.30820 4.32318 12900 ft 352 kts 240°
2026-05-04 20:39 52.29538 4.28866 13618 ft 358 kts 240°
2026-05-04 20:39 52.28233 4.25350 14252 ft 364 kts 240°
2026-05-04 20:39 52.26914 4.21803 14991 ft 365 kts 240°
2026-05-04 20:39 52.25609 4.18304 15754 ft 366 kts 239°
2026-05-04 20:40 52.24262 4.14695 16428 ft 369 kts 240°
2026-05-04 20:40 52.22933 4.11142 17065 ft 373 kts 239°
2026-05-04 20:40 52.21571 4.07506 17812 ft 374 kts 239°
2026-05-04 20:40 52.20205 4.03867 18384 ft 380 kts 239°
2026-05-04 20:41 52.18808 4.00145 18789 ft 387 kts 239°
2026-05-04 20:41 52.17408 3.96426 19398 ft 388 kts 239°
2026-05-04 20:41 52.15987 3.92653 20061 ft 387 kts 239°
2026-05-04 20:41 52.14576 3.88913 20757 ft 386 kts 239°
2026-05-04 20:42 52.13176 3.85209 21181 ft 392 kts 239°
2026-05-04 20:42 52.11738 3.81411 21768 ft 393 kts 239°
2026-05-04 20:42 52.10299 3.77616 22356 ft 395 kts 239°
2026-05-04 20:42 52.08846 3.73786 22783 ft 399 kts 239°
2026-05-04 20:43 52.07394 3.69966 23281 ft 402 kts 239°
2026-05-04 20:43 52.05909 3.66067 23772 ft 403 kts 239°
2026-05-04 20:43 52.04430 3.62189 23973 ft 407 kts 239°
2026-05-04 20:43 52.02904 3.58193 23995 ft 419 kts 239°
2026-05-04 20:44 52.01373 3.54192 23993 ft 423 kts 239°
2026-05-04 20:44 51.99808 3.50128 24004 ft 424 kts 238°
2026-05-04 20:44 51.98153 3.46148 24002 ft 426 kts 236°
2026-05-04 20:44 51.96417 3.42238 24004 ft 426 kts 234°
2026-05-04 20:45 51.94646 3.38369 24002 ft 425 kts 233°
2026-05-04 20:45 51.92895 3.34581 24002 ft 426 kts 234°
2026-05-04 20:45 51.91115 3.30727 24012 ft 425 kts 234°
2026-05-04 20:45 51.89350 3.26891 24012 ft 424 kts 234°
2026-05-04 20:46 51.87593 3.23048 24007 ft 425 kts 235°
2026-05-04 20:46 51.86056 3.18966 24008 ft 424 kts 244°
2026-05-04 20:46 51.85020 3.14571 24006 ft 422 kts 255°
2026-05-04 20:46 51.84433 3.09915 24014 ft 424 kts 260°
2026-05-04 20:47 51.84020 3.05184 24012 ft 424 kts 263°
2026-05-04 20:47 51.83703 3.00437 24012 ft 423 kts 264°
2026-05-04 20:47 51.83425 2.95696 24013 ft 423 kts 264°
2026-05-04 20:47 51.83143 2.90922 24022 ft 424 kts 262°
2026-05-04 20:48 51.82817 2.86232 24015 ft 425 kts 262°
2026-05-04 20:48 51.82467 2.81494 24017 ft 424 kts 262°
2026-05-04 20:48 51.82115 2.76741 24018 ft 423 kts 262°
2026-05-04 20:48 51.81772 2.72004 24021 ft 425 kts 262°
2026-05-04 20:49 51.81434 2.67250 24020 ft 425 kts 262°
2026-05-04 20:49 51.81106 2.62546 24020 ft 425 kts 262°
2026-05-04 20:49 51.80777 2.57806 24021 ft 424 kts 262°
2026-05-04 20:49 51.80448 2.53062 24021 ft 424 kts 262°
2026-05-04 20:50 51.80117 2.48319 24020 ft 426 kts 262°
2026-05-04 20:50 51.79787 2.43602 24020 ft 425 kts 262°
2026-05-04 20:50 51.79454 2.38860 24019 ft 424 kts 262°
2026-05-04 20:50 51.79117 2.34109 24018 ft 425 kts 262°
2026-05-04 20:51 51.78775 2.29344 24025 ft 426 kts 262°
2026-05-04 20:51 51.78433 2.24578 24017 ft 427 kts 262°
2026-05-04 20:51 51.78137 2.19790 24021 ft 428 kts 263°
2026-05-04 20:51 51.77879 2.14995 24021 ft 429 kts 263°
2026-05-04 20:52 51.77619 2.10253 24025 ft 430 kts 263°
2026-05-04 20:52 51.77347 2.05437 24026 ft 429 kts 263°
2026-05-04 20:52 51.77069 2.00639 24026 ft 428 kts 263°
2026-05-04 20:52 51.76785 1.95846 24026 ft 429 kts 263°
2026-05-04 20:53 51.76496 1.91024 24030 ft 431 kts 262°
2026-05-04 20:53 51.76208 1.86265 24030 ft 429 kts 262°
2026-05-04 20:53 51.75914 1.81453 24030 ft 428 kts 262°
2026-05-04 20:53 51.75619 1.76663 24033 ft 428 kts 262°
2026-05-04 20:54 51.75422 1.73495 24035 ft 430 kts 262°
2026-05-04 20:54 51.75025 1.67119 24041 ft 429 kts 262°
2026-05-04 20:54 51.74822 1.63877 24034 ft 428 kts 262°
2026-05-04 20:54 51.74520 1.59107 23857 ft 429 kts 262°
2026-05-04 20:55 51.74214 1.54322 23167 ft 428 kts 262°
2026-05-04 20:55 51.73913 1.49600 22333 ft 425 kts 262°
2026-05-04 20:55 51.73615 1.44933 21632 ft 405 kts 261°
2026-05-04 20:55 51.73336 1.40585 21112 ft 382 kts 260°
2026-05-04 20:56 51.73063 1.36386 20661 ft 369 kts 261°
2026-05-04 20:56 51.72790 1.32253 20217 ft 370 kts 261°
2026-05-04 20:56 51.72513 1.28113 19755 ft 369 kts 261°
2026-05-04 20:56 51.72242 1.24051 19297 ft 366 kts 261°
2026-05-04 20:57 51.71968 1.19957 18855 ft 364 kts 261°
2026-05-04 20:57 51.71696 1.15910 18402 ft 363 kts 262°
2026-05-04 20:57 51.71423 1.11863 17900 ft 362 kts 261°
2026-05-04 20:57 51.71155 1.07899 17447 ft 359 kts 261°
2026-05-04 20:58 51.70884 1.03908 17003 ft 356 kts 261°
2026-05-04 20:58 51.70611 0.99916 16550 ft 356 kts 261°
2026-05-04 20:58 51.70337 0.95928 16167 ft 362 kts 262°
2026-05-04 20:58 51.70054 0.91862 15733 ft 375 kts 262°
2026-05-04 20:59 51.69763 0.87661 15183 ft 374 kts 262°
2026-05-04 20:59 51.69480 0.83561 14883 ft 363 kts 262°
2026-05-04 20:59 51.69200 0.79557 14477 ft 351 kts 262°
2026-05-04 20:59 51.68933 0.75743 14029 ft 332 kts 262°
2026-05-04 21:00 51.68682 0.72133 13538 ft 316 kts 262°
2026-05-04 21:00 51.68446 0.68737 13078 ft 302 kts 262°
2026-05-04 21:00 51.68216 0.65436 12637 ft 289 kts 262°
2026-05-04 21:00 51.67993 0.62255 12219 ft 285 kts 262°
2026-05-04 21:01 51.67762 0.59020 11838 ft 294 kts 262°
2026-05-04 21:01 51.67525 0.55741 11432 ft 293 kts 262°
2026-05-04 21:01 51.67292 0.52532 11040 ft 282 kts 262°
2026-05-04 21:01 51.67069 0.49434 10647 ft 280 kts 262°
2026-05-04 21:02 51.66839 0.46303 10421 ft 287 kts 262°
2026-05-04 21:02 51.66601 0.43099 10060 ft 287 kts 261°
2026-05-04 21:02 51.66364 0.39913 9632 ft 287 kts 261°
2026-05-04 21:02 51.66125 0.36718 9203 ft 286 kts 262°
2026-05-04 21:03 51.65890 0.33568 8828 ft 282 kts 262°
2026-05-04 21:03 51.65656 0.30432 8306 ft 279 kts 262°
2026-05-04 21:03 51.65432 0.27400 7773 ft 270 kts 262°
2026-05-04 21:03 51.65217 0.24486 7473 ft 254 kts 262°
2026-05-04 21:04 51.65000 0.21732 7163 ft 242 kts 261°
2026-05-04 21:04 51.64748 0.19089 7051 ft 236 kts 260°
2026-05-04 21:04 51.64450 0.16483 7044 ft 237 kts 258°
2026-05-04 21:04 51.64094 0.13924 7008 ft 236 kts 256°
2026-05-04 21:05 51.63663 0.11352 6993 ft 236 kts 253°
2026-05-04 21:05 51.63171 0.08835 6993 ft 236 kts 251°
2026-05-04 21:05 51.62639 0.06331 6896 ft 237 kts 250°
2026-05-04 21:05 51.62101 0.03843 6468 ft 236 kts 251°
2026-05-04 21:06 51.61561 0.01353 5770 ft 235 kts 251°
2026-05-04 21:06 51.61025 -0.01118 5058 ft 235 kts 251°
2026-05-04 21:06 51.60499 -0.03552 4770 ft 235 kts 251°
2026-05-04 21:06 51.59948 -0.06101 4631 ft 240 kts 251°
2026-05-04 21:07 51.59410 -0.08574 4506 ft 232 kts 251°
2026-05-04 21:07 51.58899 -0.10933 4374 ft 230 kts 250°
2026-05-04 21:07 51.58371 -0.13372 4256 ft 231 kts 250°
2026-05-04 21:07 51.57834 -0.15842 4127 ft 238 kts 251°
2026-05-04 21:08 51.57285 -0.18366 3998 ft 240 kts 250°
2026-05-04 21:08 51.56737 -0.20878 3883 ft 243 kts 250°
2026-05-04 21:08 51.56174 -0.23458 3750 ft 245 kts 250°
2026-05-04 21:08 51.55611 -0.26035 3622 ft 243 kts 250°
2026-05-04 21:09 51.55049 -0.28606 3497 ft 244 kts 249°
2026-05-04 21:09 51.54483 -0.31187 3369 ft 243 kts 249°
2026-05-04 21:09 51.53923 -0.33743 3247 ft 242 kts 250°
2026-05-04 21:09 51.53360 -0.36307 3123 ft 244 kts 250°
2026-05-04 21:10 51.52795 -0.38881 2988 ft 244 kts 250°
2026-05-04 21:10 51.52250 -0.41364 2852 ft 233 kts 250°
2026-05-04 21:10 51.51716 -0.43802 2722 ft 229 kts 249°
2026-05-04 21:10 51.51190 -0.46199 2584 ft 228 kts 250°
2026-05-04 21:11 51.50666 -0.48579 2499 ft 220 kts 250°
2026-05-04 21:11 51.50182 -0.50789 2498 ft 201 kts 249°
2026-05-04 21:11 51.49736 -0.52832 2490 ft 183 kts 250°
2026-05-04 21:11 51.49505 -0.54723 2476 ft 164 kts 271°
2026-05-04 21:12 51.49670 -0.56456 2480 ft 153 kts 285°
2026-05-04 21:12 51.50041 -0.58201 2531 ft 178 kts 297°
2026-05-04 21:12 51.50617 -0.60001 2497 ft 182 kts 297°
2026-05-04 21:12 51.51129 -0.61803 2490 ft 173 kts 295°
2026-05-04 21:13 51.51472 -0.63595 2474 ft 164 kts 269°
2026-05-04 21:13 51.51048 -0.65126 2477 ft 147 kts 217°
2026-05-04 21:13 51.50121 -0.65521 2492 ft 138 kts 161°
2026-05-04 21:13 51.49280 -0.64843 2506 ft 137 kts 148°
2026-05-04 21:14 51.48343 -0.64512 2494 ft 141 kts 163°
2026-05-04 21:14 51.47663 -0.63513 2186 ft 137 kts 103°
2026-05-04 21:14 51.47628 -0.62005 1826 ft 133 kts 79°
2026-05-04 21:14 51.47705 -0.60566 1621 ft 128 kts 83°
2026-05-04 21:15 51.47717 -0.59155 1461 ft 128 kts 86°
2026-05-04 21:15 51.47718 -0.57717 1276 ft 128 kts 85°
2026-05-04 21:15 51.47725 -0.56295 1098 ft 128 kts 85°
2026-05-04 21:15 51.47728 -0.54848 925 ft 131 kts 86°
2026-05-04 21:16 51.47709 -0.53378 688 ft 132 kts 85°
2026-05-04 21:16 51.47735 -0.51930 509 ft 132 kts 85°
2026-05-04 21:16 51.47743 -0.50467 331 ft 130 kts 85°
2026-05-04 21:16 51.47749 -0.49004 183 ft 132 kts 86°
2026-05-04 21:17 51.47750 -0.47550 92 ft 122 kts 86°
2026-05-04 21:17 51.47756 -0.46450 99 ft 73 kts 89°
2026-05-04 21:17 51.47757 -0.45957 91 ft 15 kts 90°
2026-05-04 21:17 51.47758 -0.45700 90 ft 36 kts 89°
2026-05-04 21:18 51.47721 -0.45494 89 ft 18 kts 145°
2026-05-04 21:18 51.47600 -0.45465 89 ft 17 kts 178°
2026-05-04 21:18 51.47513 -0.45555 93 ft 13 kts 258°
2026-05-04 21:18 51.47512 -0.45564 89 ft 0 kts 261°
2026-05-04 21:21 51.47510 -0.45663 92 ft 13 kts 272°
2026-05-04 21:21 51.47516 -0.45849 89 ft 19 kts 272°
2026-05-04 21:21 51.47517 -0.46059 91 ft 19 kts 269°
2026-05-04 21:22 51.47515 -0.46282 90 ft 20 kts 269°
2026-05-04 21:22 51.47516 -0.46512 90 ft 21 kts 270°
2026-05-04 21:22 51.47514 -0.46699 90 ft 10 kts 263°
2026-05-04 21:22 51.47470 -0.46755 93 ft 9 kts 188°
2026-05-04 21:23 51.47408 -0.46746 91 ft 9 kts 166°
2026-05-04 21:23 51.47341 -0.46727 89 ft 4 kts 174°
2026-05-04 21:23 51.47340 -0.46727 89 ft 0 kts 174°
2026-05-04 21:23 51.47277 -0.46723 90 ft 18 kts 180°
2026-05-04 21:24 51.47157 -0.46723 89 ft 18 kts 180°
2026-05-04 21:24 51.47089 -0.46723 89 ft 1 kts 177°
2026-05-04 21:24 51.47031 -0.46696 93 ft 12 kts 156°
2026-05-04 21:24 51.46958 -0.46625 92 ft 12 kts 147°
2026-05-04 21:25 51.46883 -0.46545 87 ft 14 kts 145°
2026-05-04 21:25 51.46807 -0.46460 93 ft 9 kts 145°
2026-05-04 21:25 51.46790 -0.46441 93 ft 5 kts 145°
2026-05-04 21:25 51.46752 -0.46357 94 ft 12 kts 108°
2026-05-04 21:26 51.46746 -0.46238 92 ft 11 kts 92°
2026-05-04 21:26 51.46747 -0.46167 94 ft 3 kts 88°
2026-05-04 21:26 51.46747 -0.46094 92 ft 10 kts 90°
2026-05-04 21:26 51.46716 -0.45999 92 ft 10 kts 143°
2026-05-04 21:27 51.46667 -0.45960 90 ft 0 kts 154°
2026-05-04 21:29 51.46658 -0.45953 90 ft 7 kts 153°
2026-05-04 21:29 51.46573 -0.45872 88 ft 17 kts 146°
2026-05-04 21:29 51.46475 -0.45765 92 ft 17 kts 145°
2026-05-04 21:29 51.46380 -0.45660 92 ft 15 kts 146°
2026-05-04 21:30 51.46296 -0.45569 97 ft 15 kts 146°
2026-05-04 21:30 51.46205 -0.45469 93 ft 15 kts 146°
2026-05-04 21:30 51.46135 -0.45394 95 ft 12 kts 146°
2026-05-04 21:30 51.46058 -0.45331 90 ft 13 kts 166°
2026-05-04 21:31 51.45849 -0.45331 90 ft 16 kts 180°
2026-05-04 21:31 51.45734 -0.45301 94 ft 17 kts 156°
2026-05-04 21:31 51.45672 -0.45150 95 ft 17 kts 95°
2026-05-04 21:32 51.45691 -0.44973 93 ft 13 kts 68°
2026-05-04 21:32 51.45743 -0.44919 92 ft 7 kts 349°
2026-05-04 21:32 51.45756 -0.44928 95 ft 1 kts 337°
2026-05-04 21:32 51.45775 -0.44941 95 ft 4 kts 335°
2026-05-04 21:33 51.45790 -0.44953 95 ft 0 kts 334°